When you browse on this site, cookies collect data to enhance your experience and personalize the content and advertising you see.
Visit our Privacy Policy to learn more. By continuing to use the site, you agree to this use of cookies and data.
  • In Lithuania
  • List of Countries
  • For 7 days
  • Water Temperature
  • Weather Map
  • Weather Widgets
  • user-avatar
    Login

    Hourly Weather Mörön

    Today, 20 January, Monday

    Time Temperature Precipitation Wind Pressure Humidity
    00:00 -18°C° 0 mm 1 mps 611 mmHg 62%
    01:00 -18°C° 0 mm 1 mps 610 mmHg 61%
    02:00 -17°C° 0 mm 1 mps 610 mmHg 62%
    03:00 -17°C° 0 mm 1 mps 610 mmHg 62%
    04:00 -17°C° 0 mm 1 mps 609 mmHg 63%
    05:00 -16°C° 0 mm 1 mps 609 mmHg 66%
    06:00 -16°C° 0 mm 1 mps 609 mmHg 68%
    07:00 -16°C° 0 mm 2 mps 609 mmHg 77%
    08:00 -15°C° 0 mm 2 mps 610 mmHg 82%
    09:00 -14°C° 0 mm 2 mps 610 mmHg 86%
    10:00 -14°C° 0 mm 2 mps 610 mmHg 91%
    11:00 -13°C° 0 mm 2 mps 610 mmHg 88%
    12:00 -13°C° 0 mm 3 mps 610 mmHg 85%
    13:00 -12°C° 0 mm 3 mps 610 mmHg 79%
    14:00 -14°C° 0 mm 3 mps 610 mmHg 80%
    15:00 -14°C° 0 mm 2 mps 610 mmHg 81%
    16:00 -15°C° 0 mm 2 mps 610 mmHg 82%
    17:00 -16°C° 0 mm 2 mps 610 mmHg 84%
    18:00 -17°C° 0 mm 2 mps 611 mmHg 85%
    19:00 -18°C° 0 mm 2 mps 611 mmHg 88%
    20:00 -19°C° 0 mm 2 mps 611 mmHg 89%
    21:00 -20°C° 0 mm 2 mps 611 mmHg 90%
    22:00 -21°C° 0 mm 2 mps 611 mmHg 91%
    23:00 -21°C° 0 mm 2 mps 612 mmHg 91%

    Tomorrow, 21 January, Tuesday

    Time Temperature Precipitation Wind Pressure Humidity
    00:00 -23°C° 0 mm 2 mps 612 mmHg 91%
    01:00 -24°C° 0 mm 2 mps 612 mmHg 91%
    02:00 -24°C° 0 mm 2 mps 612 mmHg 90%
    03:00 -24°C° 0 mm 2 mps 612 mmHg 89%
    04:00 -24°C° 0 mm 2 mps 612 mmHg 87%
    05:00 -24°C° 0 mm 2 mps 612 mmHg 85%
    06:00 -22°C° 0 mm 1 mps 613 mmHg 83%
    07:00 -22°C° 0 mm 1 mps 613 mmHg 81%
    08:00 -21°C° 0 mm 1 mps 613 mmHg 80%
    09:00 -20°C° 0 mm 1 mps 613 mmHg 80%
    10:00 -19°C° 0 mm 1 mps 613 mmHg 80%
    11:00 -18°C° 0 mm 1 mps 613 mmHg 79%
    12:00 -17°C° 0 mm 1 mps 613 mmHg 77%
    13:00 -15°C° 0 mm 1 mps 613 mmHg 76%
    14:00 -16°C° 0 mm 1 mps 613 mmHg 80%
    15:00 -17°C° 0 mm 0 mps 612 mmHg 84%
    16:00 -18°C° 0 mm 0 mps 611 mmHg 89%
    17:00 -19°C° 0 mm 1 mps 611 mmHg 88%
    18:00 -20°C° 0 mm 1 mps 611 mmHg 87%
    19:00 -20°C° 0 mm 1 mps 611 mmHg 86%
    20:00 -20°C° 0 mm 1 mps 612 mmHg 83%
    21:00 -20°C° 0 mm 1 mps 612 mmHg 80%
    22:00 -19°C° 0 mm 1 mps 612 mmHg 78%
    23:00 -18°C° 0 mm 1 mps 612 mmHg 78%

    Day after tomorrow, 22 January, Wednesday

    Time Temperature Precipitation Wind Pressure Humidity
    00:00 -18°C° 0 mm 1 mps 612 mmHg 77%
    01:00 -17°C° 0 mm 1 mps 613 mmHg 77%
    02:00 -20°C° 0 mm 2 mps 613 mmHg 79%
    03:00 -20°C° 0 mm 2 mps 612 mmHg 80%
    04:00 -20°C° 0 mm 2 mps 612 mmHg 82%
    05:00 -21°C° 0 mm 2 mps 613 mmHg 81%
    06:00 -23°C° 0 mm 2 mps 613 mmHg 81%
    07:00 -23°C° 0 mm 2 mps 613 mmHg 80%
    08:00 -21°C° 0 mm 2 mps 614 mmHg 80%
    09:00 -21°C° 0 mm 2 mps 614 mmHg 80%
    10:00 -20°C° 0 mm 2 mps 615 mmHg 80%
    11:00 -19°C° 0 mm 2 mps 615 mmHg 78%
    12:00 -17°C° 0 mm 2 mps 615 mmHg 76%
    13:00 -16°C° 0 mm 2 mps 615 mmHg 74%
    14:00 -16°C° 0 mm 2 mps 615 mmHg 77%
    15:00 -17°C° 0 mm 2 mps 615 mmHg 79%
    16:00 -18°C° 0 mm 2 mps 615 mmHg 81%
    17:00 -19°C° 0 mm 2 mps 616 mmHg 79%
    18:00 -20°C° 0 mm 2 mps 616 mmHg 78%
    19:00 -21°C° 0 mm 2 mps 617 mmHg 76%
    20:00 -23°C° 0 mm 2 mps 617 mmHg 75%
    21:00 -23°C° 0 mm 2 mps 617 mmHg 74%
    22:00 -23°C° 0 mm 2 mps 617 mmHg 73%
    23:00 -23°C° 0 mm 2 mps 618 mmHg 72%

    23 January, Thursday

    Time Temperature Precipitation Wind Pressure Humidity
    00:00 -23°C° 0 mm 2 mps 618 mmHg 71%
    01:00 -24°C° 0 mm 2 mps 618 mmHg 70%
    02:00 -24°C° 0 mm 2 mps 618 mmHg 70%
    03:00 -24°C° 0 mm 2 mps 618 mmHg 70%
    04:00 -21°C° 0 mm 1 mps 618 mmHg 70%
    05:00 -22°C° 0 mm 1 mps 618 mmHg 71%
    06:00 -22°C° 0 mm 1 mps 618 mmHg 71%
    07:00 -22°C° 0 mm 1 mps 618 mmHg 72%
    08:00 -21°C° 0 mm 1 mps 619 mmHg 73%
    09:00 -20°C° 0 mm 1 mps 619 mmHg 75%
    10:00 -19°C° 0 mm 1 mps 619 mmHg 77%
    11:00 -17°C° 0 mm 1 mps 619 mmHg 76%
    12:00 -16°C° 0 mm 1 mps 619 mmHg 74%
    13:00 -14°C° 0 mm 1 mps 619 mmHg 73%
    14:00 -15°C° 0 mm 1 mps 619 mmHg 76%
    15:00 -15°C° 0 mm 1 mps 619 mmHg 79%
    16:00 -15°C° 0 mm 1 mps 619 mmHg 83%
    17:00 -16°C° 0 mm 1 mps 619 mmHg 81%
    18:00 -17°C° 0 mm 1 mps 619 mmHg 80%
    19:00 -18°C° 0 mm 1 mps 619 mmHg 78%
    20:00 -20°C° 0 mm 2 mps 620 mmHg 77%
    21:00 -21°C° 0 mm 2 mps 620 mmHg 76%
    22:00 -21°C° 0 mm 2 mps 620 mmHg 74%
    23:00 -21°C° 0 mm 2 mps 620 mmHg 74%

    24 January, Friday

    Time Temperature Precipitation Wind Pressure Humidity
    00:00 -23°C° 0 mm 2 mps 620 mmHg 73%
    01:00 -23°C° 0 mm 2 mps 620 mmHg 73%
    02:00 -23°C° 0 mm 2 mps 621 mmHg 73%
    03:00 -21°C° 0 mm 2 mps 621 mmHg 73%
    04:00 -21°C° 0 mm 2 mps 621 mmHg 74%
    05:00 -23°C° 0 mm 2 mps 621 mmHg 73%
    06:00 -23°C° 0 mm 2 mps 621 mmHg 73%
    07:00 -23°C° 0 mm 2 mps 621 mmHg 72%
    08:00 -21°C° 0 mm 2 mps 621 mmHg 74%
    09:00 -20°C° 0 mm 2 mps 622 mmHg 75%
    10:00 -18°C° 0 mm 2 mps 622 mmHg 76%
    11:00 -15°C° 0 mm 1 mps 622 mmHg 75%
    12:00 -14°C° 0 mm 1 mps 622 mmHg 74%
    13:00 -13°C° 0 mm 1 mps 621 mmHg 73%
    14:00 -13°C° 0 mm 1 mps 621 mmHg 75%
    15:00 -14°C° 0 mm 1 mps 620 mmHg 78%
    16:00 -15°C° 0 mm 1 mps 620 mmHg 81%
    17:00 -15°C° 0 mm 1 mps 620 mmHg 78%
    18:00 -16°C° 0 mm 1 mps 620 mmHg 76%
    19:00 -17°C° 0 mm 1 mps 620 mmHg 73%
    20:00 -17°C° 0 mm 1 mps 620 mmHg 71%
    21:00 -17°C° 0 mm 1 mps 619 mmHg 69%
    22:00 -18°C° 0 mm 1 mps 619 mmHg 66%
    23:00 -18°C° 0 mm 1 mps 619 mmHg 66%

    25 January, Saturday

    Time Temperature Precipitation Wind Pressure Humidity
    00:00 -18°C° 0 mm 1 mps 619 mmHg 65%
    01:00 -18°C° 0 mm 1 mps 619 mmHg 65%
    02:00 -18°C° 0 mm 1 mps 619 mmHg 65%
    03:00 -18°C° 0 mm 1 mps 618 mmHg 65%
    04:00 -19°C° 0 mm 1 mps 618 mmHg 65%
    05:00 -19°C° 0 mm 1 mps 618 mmHg 65%
    06:00 -19°C° 0 mm 1 mps 618 mmHg 66%
    07:00 -19°C° 0 mm 1 mps 618 mmHg 66%
    08:00 -18°C° 0 mm 1 mps 618 mmHg 67%
    09:00 -17°C° 0 mm 1 mps 618 mmHg 69%
    10:00 -15°C° 0 mm 1 mps 618 mmHg 70%
    11:00 -14°C° 0 mm 1 mps 618 mmHg 70%
    12:00 -13°C° 0 mm 1 mps 618 mmHg 69%
    13:00 -11°C° 0 mm 0 mps 617 mmHg 69%
    14:00 -12°C° 0 mm 0 mps 617 mmHg 72%
    15:00 -13°C° 0 mm 0 mps 617 mmHg 74%
    16:00 -14°C° 0 mm 0 mps 616 mmHg 77%
    17:00 -14°C° 0 mm 1 mps 616 mmHg 74%
    18:00 -15°C° 0 mm 1 mps 616 mmHg 70%
    19:00 -16°C° 0 mm 1 mps 616 mmHg 67%
    20:00 -16°C° 0 mm 1 mps 616 mmHg 64%
    21:00 -16°C° 0 mm 1 mps 616 mmHg 62%
    22:00 -18°C° 0 mm 2 mps 616 mmHg 59%
    23:00 -18°C° 0 mm 2 mps 616 mmHg 58%
    Show more